GW4764 Weather Reports


Display with metric or nautical units.
time (UTC)temp
F
wind
direction
speed
MPH
gust
MPH
rain 1hr
in
rain 24hr
in
rain mn
in
humidity
%
barometer
mb
20260510224520 56 269 3.0 8.0 0.00 0.00 0.00 38 1018.6
20260510223023 56 260 3.0 9.0 0.00 0.00 0.00 36 1018.6
20260510221510 56 255 1.0 8.0 0.00 0.00 0.00 40 1018.5
20260510220019 56 221 1.0 7.0 0.00 0.00 0.00 37 1018.5
20260510214525 56 273 4.0 10.0 0.00 0.00 0.00 36 1018.1
20260510213023 56 352 2.0 10.0 0.00 0.00 0.00 35 1018.0
20260510211532 56 352 3.0 5.0 0.00 0.00 0.00 40 1017.9
20260510210014 55 352 2.0 7.0 0.00 0.00 0.00 36 1017.9
20260510204528 56 300 4.0 12.0 0.00 0.00 0.00 36 1017.8
20260510203022 56 65 3.0 7.0 0.00 0.00 0.00 35 1017.9
20260510201506 56 360 1.0 7.0 0.00 0.00 0.00 37 1017.9
20260510200010 56 300 3.0 9.0 0.00 0.00 0.00 36 1018.1
20260510194516 56 290 3.0 8.0 0.00 0.00 0.00 33 1018.1
20260510193005 56 267 4.0 8.0 0.00 0.00 0.00 34 1018.2
20260510191505 57 295 4.0 7.0 0.00 0.00 0.00 33 1018.3
20260510190009 57 252 2.0 9.0 0.00 0.00 0.00 32 1018.4
20260510184514 56 335 3.0 13.0 0.00 0.00 0.00 35 1018.3
20260510183020 56 351 4.0 13.0 0.00 0.00 0.00 32 1018.2
20260510181504 58 235 5.0 11.0 0.00 0.00 0.00 33 1018.2
20260510180008 57 5 4.0 9.0 0.00 0.03 0.00 34 1018.1
20260510174512 56 142 2.0 6.0 0.00 0.03 0.00 36 1017.9
20260510173016 57 303 3.0 10.0 0.00 0.03 0.00 43 1018.0
20260510171527 55 322 2.0 10.0 0.00 0.03 0.00 37 1018.1
20260510170007 55 5 2.0 11.0 0.00 0.03 0.00 36 1018.2
20260510164509 55 293 4.0 12.0 0.00 0.03 0.00 35 1018.2
20260510163013 54 55 3.0 10.0 0.00 0.03 0.00 37 1018.1
20260510161521 54 239 3.0 9.0 0.00 0.03 0.00 41 1018.1
20260510160006 54 352 3.0 9.0 0.00 0.03 0.00 41 1018.0
20260510154510 54 94 2.0 7.0 0.00 0.03 0.00 42 1017.8
20260510153012 53 221 4.0 10.0 0.00 0.03 0.00 41 1017.7
20260510151522 53 347 2.0 8.0 0.00 0.03 0.00 42 1017.5
20260510150025 52 277 5.0 9.0 0.00 0.03 0.00 40 1017.5
20260510144510 52 352 2.0 8.0 0.00 0.03 0.00 44 1017.2
20260510143009 50 302 3.0 7.0 0.00 0.03 0.00 46 1017.1
20260510141516 50 257 2.0 8.0 0.00 0.03 0.00 48 1017.0
20260510140022 50 258 1.0 7.0 0.00 0.03 0.00 50 1017.0
20260510134522 50 226 3.0 8.0 0.00 0.03 0.00 52 1016.8
20260510133006 48 346 3.0 5.0 0.00 0.03 0.00 53 1017.0
20260510131511 48 329 2.0 6.0 0.00 0.03 0.00 54 1016.8
20260510130018 47 273 3.0 4.0 0.00 0.03 0.00 54 1016.6
20260510124521 46 18 2.0 4.0 0.00 0.03 0.00 57 1016.5
20260510123024 45 349 2.0 4.0 0.00 0.03 0.00 65 1016.2
20260510121507 43 33 2.0 3.0 0.00 0.03 0.00 69 1016.1
20260510120016 40 5 0.0 2.0 0.00 0.03 0.00 78 1015.9
20260510114523 38 5 0.0 0.0 0.00 0.03 0.00 86 1015.7
20260510113033 35 9 0.0 0.0 0.00 0.03 0.00 90 1015.5
20260510111505 33 9 0.0 0.0 0.00 0.03 0.00 90 1015.4
20260510110021 32 9 0.0 0.0 0.00 0.03 0.00 88 1015.2
20260510104504 32 9 0.0 0.0 0.00 0.03 0.00 86 1014.9
20260510103002 33 9 0.0 0.0 0.00 0.03 0.00 85 1014.7
20260510101506 34 9 0.0 0.0 0.00 0.03 0.00 84 1014.7
20260510100011 34 9 0.0 0.0 0.00 0.03 0.00 83 1014.5
20260510094518 35 9 0.0 0.0 0.00 0.03 0.00 82 1014.2
20260510093021 35 9 0.0 0.0 0.00 0.03 0.00 80 1014.0
20260510091503 36 9 0.0 0.0 0.00 0.03 0.00 77 1013.9
20260510090007 37 9 0.0 0.0 0.00 0.03 0.00 76 1013.7
20260510084512 38 9 0.0 0.0 0.00 0.03 0.00 72 1013.4
20260510083015 39 9 0.0 2.0 0.00 0.03 0.00 69 1013.4
20260510081524 40 28 0.0 3.0 0.00 0.03 0.00 68 1013.1
20260510080008 40 315 0.0 2.0 0.00 0.03 0.00 67 1012.9
20260510074509 41 312 0.0 3.0 0.00 0.03 0.00 69 1012.7
20260510073015 41 337 0.0 2.0 0.00 0.03 0.00 69 1012.2
20260510071519 40 5 1.0 3.0 0.00 0.03 0.00 73 1011.9
20260510070030 41 96 0.0 2.0 0.00 0.03 0.00 75 1011.8
20260510064510 42 96 0.0 2.0 0.00 0.03 0.00 73 1011.6
20260510063011 43 30 0.0 2.0 0.00 0.03 0.00 72 1011.4
20260510061515 44 34 0.0 2.0 0.00 0.03 0.00 69 1011.1
20260510060033 42 352 0.0 7.0 0.00 0.03 0.00 76 1010.9
20260510054523 42 352 0.0 2.0 0.00 0.03 0.00 77 1010.6
20260510053007 42 274 0.0 0.0 0.00 0.03 0.00 79 1010.4
20260510051512 41 274 0.0 1.0 0.00 0.03 0.00 82 1010.1
20260510050020 42 274 0.0 0.0 0.00 0.03 0.00 80 1009.8
20260510044528 43 274 0.0 1.0 0.00 0.03 0.00 78 1009.7
20260510043024 44 274 0.0 2.0 0.00 0.03 0.00 76 1009.3
20260510041512 46 274 0.0 0.0 0.00 0.03 0.00 73 1009.2
20260510040015 47 274 0.0 2.0 0.00 0.03 0.00 70 1009.0
20260510034520 49 274 0.0 2.0 0.00 0.03 0.03 66 1008.8
20260510033024 50 274 0.0 2.0 0.00 0.03 0.03 62 1008.6
20260510031527 51 269 0.0 2.0 0.00 0.03 0.03 61 1008.3
20260510030013 52 269 0.0 2.0 0.00 0.03 0.03 58 1008.1
20260510024518 53 303 0.0 2.0 0.00 0.03 0.03 55 1008.1
20260510023022 54 329 1.0 3.0 0.00 0.03 0.03 53 1007.7
20260510021519 55 321 2.0 5.0 0.00 0.03 0.03 52 1007.6
20260510020008 55 306 0.0 4.0 0.00 0.03 0.03 50 1007.2
20260510014530 57 290 2.0 7.0 0.00 0.03 0.03 47 1006.8
20260510013004 58 74 2.0 6.0 0.00 0.03 0.03 46 1006.5
20260510011504 60 338 4.0 12.0 0.00 0.03 0.03 44 1005.7
20260510010019 60 346 2.0 9.0 0.00 0.03 0.03 48 1005.1
20260510004511 60 256 3.0 9.0 0.00 0.03 0.03 47 1004.7
20260510003022 61 254 2.0 9.0 0.00 0.03 0.03 48 1004.4
20260510001504 62 344 0.0 3.0 0.00 0.03 0.03 49 1004.3
20260510000006 62 338 1.0 7.0 0.00 0.03 0.03 47 1004.0
20260509234512 63 248 2.0 10.0 0.00 0.03 0.03 46 1003.8
20260509233016 64 264 2.0 5.0 0.00 0.03 0.03 45 1003.8
20260509231522 65 292 3.0 11.0 0.00 0.03 0.03 43 1003.6
20260509230010 65 257 2.0 13.0 0.00 0.03 0.03 43 1003.6